Location: Goettingen
(51.5300°N, 9.9433°E)
Time: 19:40:10
(UTC+02:00)

ISS - Pass Details

Date: 21 July 2019
Orbit: 409 x 418 km, 51.6° (Epoch: 20 July)

Event Time Altitude Azimuth Distance (km) Brightness Sun altitude
Rises 02:13:32 0° 283° (WNW) 2,351 0.1 -17.2°
Reaches altitude 10° 02:15:40 10° 278° (W) 1,485 -1.0 -17.1°
Enters shadow 02:18:00 35° 247° (WSW) 682 -3.0 -17.0°
